ABC123 WSSS-WIDD

Flight info

Callsign ABC123
Flight time 0h 11m
Altitude 4000
Route DCT BTM DCT
Aircraft A333/M-V/N

Departure

Time 2026-04-22 09:12
Airport Singapore Changi Airport (WSSS)

Arrival

Time 2026-04-22 09:24
Airport Hang Nadim International Airport (WIDD)
Time Latitude Longitude Altitude Speed Heading
2026-04-22 09:10 1.35792 103.99736 408 ft 187 kts 28°
2026-04-22 09:12 1.36956 104.00310 1209 ft 182 kts 28°
2026-04-22 09:13 1.37950 104.00851 2237 ft 155 kts 30°
2026-04-22 09:13 1.38835 104.01358 2991 ft 146 kts 30°
2026-04-22 09:13 1.39686 104.01867 3621 ft 142 kts 30°
2026-04-22 09:13 1.40511 104.02541 3846 ft 171 kts 57°
2026-04-22 09:14 1.40734 104.03777 4092 ft 199 kts 101°
2026-04-22 09:14 1.39932 104.04961 4333 ft 223 kts 144°
2026-04-22 09:14 1.38418 104.05365 4556 ft 231 kts 186°
2026-04-22 09:14 1.36843 104.05128 4422 ft 226 kts 190°
2026-04-22 09:15 1.35230 104.04838 3050 ft 253 kts 192°
2026-04-22 09:15 1.33497 104.04426 1640 ft 265 kts 195°
2026-04-22 09:15 1.31875 104.03809 1405 ft 228 kts 202°
2026-04-22 09:15 1.30513 104.03214 1259 ft 200 kts 203°
2026-04-22 09:16 1.29312 104.02690 1130 ft 175 kts 202°
2026-04-22 09:16 1.28228 104.02292 975 ft 156 kts 200°
2026-04-22 09:16 1.27161 104.01889 554 ft 180 kts 201°
2026-04-22 09:16 1.25910 104.01407 200 ft 201 kts 201°
2026-04-22 09:17 1.24559 104.00974 268 ft 212 kts 189°
2026-04-22 09:17 1.22967 104.00941 744 ft 240 kts 173°
2026-04-22 09:17 1.21266 104.01247 1318 ft 263 kts 166°
2026-04-22 09:17 1.19362 104.01723 1641 ft 300 kts 165°
2026-04-22 09:18 1.17157 104.02312 1682 ft 344 kts 162°
2026-04-22 09:18 1.14870 104.03107 2328 ft 337 kts 159°
2026-04-22 09:18 1.12882 104.04102 2597 ft 310 kts 143°
2026-04-22 09:18 1.11290 104.05481 2627 ft 291 kts 148°
2026-04-22 09:19 1.09363 104.05979 2191 ft 294 kts 184°
2026-04-22 09:19 1.07481 104.05125 1457 ft 306 kts 225°
2026-04-22 09:19 1.06302 104.03388 1227 ft 298 kts 244°
2026-04-22 09:19 1.05289 104.01682 1376 ft 277 kts 231°
2026-04-22 09:20 1.03928 104.00330 1263 ft 268 kts 219°
2026-04-22 09:20 1.02621 103.99067 1272 ft 252 kts 239°
2026-04-22 09:20 1.02061 103.97498 1341 ft 236 kts 259°
2026-04-22 09:20 1.01797 103.95900 1254 ft 229 kts 259°
2026-04-22 09:21 1.01151 103.94492 1172 ft 219 kts 221°
2026-04-22 09:21 0.99786 103.94044 1151 ft 219 kts 159°
2026-04-22 09:21 0.98635 103.95100 1828 ft 246 kts 110°
2026-04-22 09:21 0.98881 103.96948 1529 ft 322 kts 60°
2026-04-22 09:22 1.00289 103.98824 2590 ft 344 kts 51°
2026-04-22 09:22 1.01817 104.00716 2809 ft 359 kts 52°
2026-04-22 09:22 1.03314 104.02675 2668 ft 354 kts 53°
2026-04-22 09:22 1.04796 104.04669 2442 ft 354 kts 52°
2026-04-22 09:23 1.06350 104.06603 2214 ft 347 kts 53°
2026-04-22 09:23 1.07797 104.08425 1382 ft 321 kts 45°
2026-04-22 09:23 1.09516 104.09656 650 ft 297 kts 32°
2026-04-22 09:23 1.10978 104.10872 819 ft 252 kts 49°
2026-04-22 09:24 1.12185 104.12032 287 ft 238 kts 37°
2026-04-22 09:24 1.13227 104.12743 67 ft 71 kts 99°
2026-04-22 09:24 1.13391 104.12888 69 ft 0 kts 257°
2026-04-22 09:25 1.13380 104.12862 69 ft 17 kts 238°
2026-04-22 09:25 1.13239 104.12683 67 ft 45 kts 226°
2026-04-22 09:25 1.12929 104.12395 66 ft 73 kts 223°
2026-04-22 09:25 1.12529 104.12036 75 ft 73 kts 212°
2026-04-22 09:26 1.12341 104.11863 85 ft 28 kts 245°
2026-04-22 09:26 1.12338 104.11799 87 ft 4 kts 252°
2026-04-22 09:26 1.12323 104.11764 89 ft 8 kts 265°
2026-04-22 09:26 1.12361 104.11694 91 ft 12 kts 310°
2026-04-22 09:27 1.12363 104.11690 91 ft 0 kts 310°